Fort Pierce, FL

7:48 AM EST on February 08, 2016 (GMT -0500)
Saint Lucie County International

Weather History for KFPR - November, 2012

Change the Weather History Date:

Wednesday, November 7, 2012

  Actual Average (KVRB) Record (KVRB)
Temperature  
Mean Temperature 58 °F 72 °F  
Max Temperature 68 °F 80 °F 86 °F (1990)
Min Temperature 48 °F 63 °F 42 °F (1970)
Degree Days  
Heating Degree Days 7 0  
Month to date heating degree days 0  
Since 1 July heating degree days 3  
Cooling Degree Days 0 7  
Month to date cooling degree days 54  
Year to date cooling degree days 3182  
Growing Degree Days 8 (Base 50)    
Moisture  
Dew Point 50 °F    
Average Humidity 75    
Maximum Humidity 100    
Minimum Humidity 45    
Precipitation  
Precipitation 0.00 in 0.12 in 1.40 in (1965)
Month to date precipitation 0.83  
Year to date precipitation 47.23  
Sea Level Pressure  
Sea Level Pressure 29.91 in    
Wind  
Wind Speed 7 mph (WNW)    
Max Wind Speed 18 mph    
Max Gust Speed 28 mph    
Visibility 9 miles    
Events      
T = Trace of Precipitation, MM = Missing Value Source: NWS Daily Summary

Daily Weather History Graph

Daily Weather History Graph

Search for Another Location

Airport or City:

Trip Planner

Search our weather history database for the weather conditions in past years. The results will help you decide how hot, cold, wet, or windy it might be!

Date:

Astronomy

Nov. 07, 2012 Rise Set
Actual Time 6:36 AM EST 5:33 PM EST
Civil Twilight 6:12 AM EST 5:57 PM EST
Nautical Twilight 5:44 AM EST 6:25 PM EST
Astronomical Twilight 5:16 AM EST 6:53 PM EST
Moon 12:04 AM EST (11/7) 1:08 PM EST (11/7)
Length of Visible Light 11h 45m
Length of Day
10h 56m
Last Quarter, 43% of the Moon is Illuminated
Nov 7
Last Quarter
Nov 13
New
Nov 20
First Quarter
Nov 28
Full
Dec 6
Last Quarter

Hourly Weather History & Observations

Time (EST) Temp. Dew Point Humidity Pressure Visibility Wind Dir Wind Speed Gust Speed Precip Events Conditions
12:53 AM 59.0 °F 57.9 °F 96% 29.85 in 7.0 mi WSW 3.5 mph - N/A   Clear
1:53 AM 60.1 °F 57.9 °F 93% 29.84 in 7.0 mi WNW 4.6 mph - N/A   Clear
2:53 AM 59.0 °F 57.9 °F 96% 29.85 in 9.0 mi WNW 5.8 mph - N/A   Clear
3:53 AM 57.9 °F 57.0 °F 97% 29.85 in 9.0 mi WNW 6.9 mph - N/A   Clear
4:53 AM 55.9 °F 55.0 °F 97% 29.86 in 6.0 mi West 5.8 mph - N/A   Clear
5:53 AM 53.1 °F 53.1 °F 100% 29.88 in 6.0 mi WSW 3.5 mph - N/A   Clear
6:53 AM 55.0 °F 54.0 °F 96% 29.91 in 7.0 mi WNW 5.8 mph - N/A   Mostly Cloudy
7:53 AM 57.0 °F 55.0 °F 93% 29.93 in 9.0 mi West 6.9 mph - N/A   Mostly Cloudy
8:53 AM 61.0 °F 53.1 °F 75% 29.94 in 10.0 mi WNW 10.4 mph 19.6 mph N/A   Clear
9:53 AM 64.0 °F 50.0 °F 60% 29.94 in 10.0 mi WNW 11.5 mph 19.6 mph N/A   Clear
10:53 AM 66.0 °F 48.9 °F 54% 29.94 in 10.0 mi NW 15.0 mph 24.2 mph N/A   Partly Cloudy
11:53 AM 66.9 °F 48.0 °F 51% 29.92 in 10.0 mi NW 16.1 mph 27.6 mph N/A   Clear
12:53 PM 68.0 °F 48.0 °F 49% 29.89 in 10.0 mi West 17.3 mph 25.3 mph N/A   Clear
1:53 PM 68.0 °F 46.0 °F 45% 29.88 in 10.0 mi West 18.4 mph 25.3 mph N/A   Partly Cloudy
2:53 PM 68.0 °F 46.9 °F 47% 29.87 in 10.0 mi WNW 17.3 mph 24.2 mph N/A   Partly Cloudy
3:53 PM 66.9 °F 46.0 °F 47% 29.87 in 10.0 mi WNW 11.5 mph 21.9 mph N/A   Clear
4:53 PM 64.9 °F 45.0 °F 48% 29.88 in 10.0 mi WNW 10.4 mph - N/A   Partly Cloudy
5:53 PM 57.9 °F 48.0 °F 70% 29.90 in 10.0 mi WNW 3.5 mph - N/A   Clear
6:53 PM 55.0 °F 46.9 °F 74% 29.93 in 10.0 mi WNW 5.8 mph - N/A   Clear
7:53 PM 52.0 °F 46.9 °F 83% 29.95 in 10.0 mi WNW 3.5 mph - N/A   Clear
8:53 PM 53.1 °F 46.9 °F 80% 29.98 in 10.0 mi WNW 4.6 mph - N/A   Clear
9:53 PM 51.1 °F 46.0 °F 83% 30.00 in 10.0 mi WNW 4.6 mph - N/A   Clear
10:53 PM 48.9 °F 46.0 °F 90% 30.00 in 10.0 mi WNW 4.6 mph - N/A   Clear
11:53 PM 50.0 °F 46.0 °F 86% 29.99 in 10.0 mi WNW 4.6 mph - N/A   Clear